Pamplona, Spain

12:55 AM CET on December 16, 2017 (GMT +0100)
Pamplona

Weather History for LEPP - February, 2013

Change the Weather History Date:

Saturday, February 9, 2013

  Actual Average Record
Temperature  
Mean Temperature 40 °F -  
Max Temperature 44 °F 50 °F 60 °F (2002)
Min Temperature 35 °F 36 °F 24 °F (2005)
Degree Days  
Heating Degree Days 26    
Moisture  
Dew Point 36 °F    
Average Humidity 88    
Maximum Humidity 100    
Minimum Humidity 75    
Precipitation  
Precipitation 0.00 in - - ()
Sea Level Pressure  
Sea Level Pressure 30.19 in    
Wind  
Wind Speed 7 mph ()    
Max Wind Speed 16 mph    
Max Gust Speed -    
Visibility 5.4 miles    
Events Rain , Snow    
Averages and records for this station are not official NWS values.
T = Trace of Precipitation, MM = Missing Value Source: Averaged Metar Reports

Daily Weather History Graph

Daily Weather History Graph

Search for Another Location

Airport or City:

Trip Planner

Search our weather history database for the weather conditions in past years. The results will help you decide how hot, cold, wet, or windy it might be!

Date:

Astronomy

Feb. 09, 2013 Rise Set
Actual Time 8:11 AM CET 6:30 PM CET
Civil Twilight 7:42 AM CET 6:59 PM CET
Nautical Twilight 7:08 AM CET 7:33 PM CET
Astronomical Twilight 6:36 AM CET 8:06 PM CET
Moon 7:13 AM CET (2/9) 5:56 PM CET (2/9)
Length of Visible Light 11h 17m
Length of Day
10h 18m
Waning Crescent, 1% of the Moon is Illuminated
Feb 9
Waning Crescent
Feb 10
New
Feb 17
First Quarter
Feb 25
Full
Mar 4
Last Quarter

Hourly Weather History & Observations

Time (CET) Temp. Windchill Dew Point Humidity Pressure Visibility Wind Dir Wind Speed Gust Speed Precip Events Conditions
12:00 AM 35.6 °F 31.7 °F 32.0 °F 87% 30.15 in 6.2 mi NW 4.6 mph - N/A   Mostly Cloudy
5:30 AM 35.6 °F 28.0 °F 30.2 °F 81% 30.15 in 6.2 mi NNW 10.4 mph - N/A   Mostly Cloudy
6:00 AM 35.6 °F 28.6 °F 30.2 °F 81% 30.18 in 6.2 mi NW 9.2 mph - N/A   Mostly Cloudy
6:30 AM 35.6 °F 28.6 °F 28.4 °F 75% 30.18 in 6.2 mi WNW 9.2 mph - N/A   Mostly Cloudy
7:00 AM 35.6 °F 29.9 °F 30.2 °F 81% 30.18 in 6.2 mi WNW 6.9 mph - N/A   Mostly Cloudy
7:30 AM 35.6 °F 29.9 °F 30.2 °F 81% 30.18 in 6.2 mi WNW 6.9 mph - N/A   Mostly Cloudy
8:00 AM 35.6 °F 28.6 °F 30.2 °F 81% 30.18 in 6.2 mi WNW 9.2 mph - N/A   Mostly Cloudy
8:30 AM 35.6 °F 28.6 °F 30.2 °F 81% 30.18 in 6.2 mi NW 9.2 mph - N/A   Mostly Cloudy
9:00 AM 37.4 °F 30.3 °F 32.0 °F 81% 30.21 in 6.2 mi NW 10.4 mph - N/A   Mostly Cloudy
9:30 AM 37.4 °F 30.3 °F 32.0 °F 81% 30.21 in 6.2 mi NW 10.4 mph - N/A   Mostly Cloudy
10:00 AM 37.4 °F 31.4 °F 32.0 °F 81% 30.21 in 6.2 mi NW 8.1 mph - N/A   Mostly Cloudy
10:30 AM 41.0 °F 36.4 °F 33.8 °F 76% 30.24 in 6.2 mi NW 6.9 mph - N/A   Mostly Cloudy
11:00 AM 41.0 °F 34.3 °F 33.8 °F 76% 30.21 in 6.2 mi NNW 11.5 mph - N/A   Mostly Cloudy
11:30 AM 41.0 °F 33.1 °F 35.6 °F 81% 30.24 in 6.2 mi NNW 15.0 mph - N/A   Mostly Cloudy
12:00 PM 37.4 °F 28.5 °F 35.6 °F 93% 30.24 in 5.6 mi NNW 15.0 mph - N/A Rain , Snow Light Rain
12:30 PM 41.0 °F 35.2 °F 37.4 °F 87% 30.24 in 6.2 mi NNW 9.2 mph - N/A   Scattered Clouds
1:00 PM 42.8 °F 35.8 °F 37.4 °F 81% 30.21 in 6.2 mi NNW 13.8 mph - N/A   Mostly Cloudy
1:30 PM 41.0 °F 35.2 °F 39.2 °F 93% 30.21 in 5.0 mi NW 9.2 mph - N/A Rain Light Rain
2:00 PM 42.8 °F 37.5 °F 39.2 °F 87% 30.21 in 5.0 mi NNW 9.2 mph - N/A   Light Drizzle
2:30 PM 42.8 °F 35.8 °F 39.2 °F 87% 30.21 in 5.0 mi NW 13.8 mph - N/A   Light Drizzle
3:00 PM 44.6 °F 37.4 °F 39.2 °F 81% 30.18 in 5.0 mi NW 16.1 mph - N/A   Light Drizzle
4:00 PM 42.8 °F 38.0 °F 39.2 °F 87% 30.18 in 6.2 mi NNW 8.1 mph - N/A   Mostly Cloudy
4:30 PM 42.8 °F 37.5 °F 39.2 °F 87% 30.18 in 6.2 mi NNW 9.2 mph - N/A   Light Drizzle
4:46 PM 42.8 °F 37.0 °F 39.2 °F 87% 30.18 in 6.2 mi NNW 10.4 mph - N/A Rain Rain
5:30 PM 41.0 °F 35.2 °F 39.2 °F 93% 30.18 in 6.2 mi NNW 9.2 mph - N/A Rain Rain
6:00 PM 39.2 °F 32.0 °F 37.4 °F 93% 30.18 in 3.1 mi North 11.5 mph - N/A Rain Rain
6:03 PM 39.2 °F 31.2 °F 37.4 °F 93% 30.18 in 1.9 mi NNE 13.8 mph - N/A Rain Rain
6:30 PM 37.4 °F 29.8 °F 35.6 °F 93% 30.21 in 1.9 mi NNW 11.5 mph - N/A Rain Rain
6:49 PM 37.4 °F 34.9 °F 37.4 °F 100% 30.21 in 6.2 mi NNW 3.5 mph - N/A Rain Light Rain
7:00 PM 39.2 °F - 37.4 °F 93% 30.21 in 5.6 mi Variable 1.2 mph - N/A Rain Light Rain
7:30 PM 39.2 °F - 37.4 °F 93% 30.21 in 5.6 mi NW 2.3 mph - N/A Rain Light Rain
8:00 PM 39.2 °F - 37.4 °F 93% 30.18 in 5.6 mi Calm Calm - N/A Rain Light Rain
8:30 PM 39.2 °F - 37.4 °F 93% 30.18 in 6.2 mi South 1.2 mph - N/A Rain Light Rain
8:35 PM 39.2 °F - 37.4 °F 93% 30.18 in 3.7 mi South 1.2 mph - N/A Rain Rain
9:00 PM 39.2 °F - 37.4 °F 93% 30.18 in 5.6 mi Calm Calm - N/A Rain Rain
9:30 PM 39.2 °F - 37.4 °F 93% 30.18 in 3.7 mi South 1.2 mph - N/A Rain Rain
10:00 PM 39.2 °F - 39.2 °F 100% 30.18 in 6.2 mi SSE 2.3 mph - N/A Rain Light Rain
10:30 PM 39.2 °F - 39.2 °F 100% 30.18 in 3.1 mi Variable 1.2 mph - N/A Rain Rain
11:00 PM 39.2 °F - 39.2 °F 100% 30.15 in 3.1 mi Calm Calm - N/A Rain Light Rain
11:30 PM 41.0 °F 38.0 °F 39.2 °F 93% 30.15 in 6.2 mi NW 4.6 mph - N/A   Mostly Cloudy